Regional Weather Roundup
Issued by NWS

Home | Current Version | Previous Version | Graphics & Text | Print | Product List | Glossary On
Versions: 1 2 3 4 5 6 7 8 9 10 11 12 13 14 15 16 17 18 19 20 21 22 23 24 25 26 27 28 29 30 31 32 33 34 35 36 37 38 39 40 41 42 43 44 45 46 47 48 49 50
000
ASUS45 KBOU 250307
RWRCO

WEATHER ROUNDUP FOR COLORADO
NATIONAL WEATHER SERVICE DENVER/BOULDER CO
800 PM MST SAT JAN 24 2015

NOTE: "FAIR" INDICATES FEW OR NO CLOUDS BELOW 12000 FEET WITH NO
SIGNIFICANT WEATHER AND/OR OBSTRUCTIONS TO VISIBILITY.

COZ001>005-013-030-031-250400-
...NORTHWEST COLORADO...

CITY           SKY/WX    TMP DP  RH WIND       PRES   REMARKS
CRAIG          CLOUDY    27  19  72 CALM      30.33R
HAYDEN         CLOUDY    25  14  63 S5        30.32R WCI  19
MEEKER         PTCLDY    24  16  71 CALM      30.33R
MOUNT WERNER   NOT AVBL
STEAMBOAT SPGS CLOUDY    22  13  68 CALM      30.31S
WALDEN         CLOUDY    32  21  64 SW12G18   30.24R WCI  23
$$

COZ006>008-011-250400-
...WEST CENTRAL VALLEYS...

CITY           SKY/WX    TMP DP  RH WIND       PRES   REMARKS
GRAND JUNCTION PTCLDY    28  18  66 E3        30.35F
MONTROSE       PTCLDY    25  13  60 S5        30.37S WCI  19
EAGLE          CLOUDY    27  18  69 CALM      30.36S
RIFLE          MOCLDY    27  18  69 S3        30.36S
DELTA          PTCLDY    32  16  51 CALM      30.37S
NUCLA          PTCLDY    30  14  51 E6        30.36F WCI  24
$$

COZ017>023-064>068-250400-
...SOUTHWEST COLORADO...

CITY           SKY/WX    TMP DP  RH WIND       PRES   REMARKS
DURANGO        PTCLDY    27  19  72 N6        30.26F WCI  20
CORTEZ         CLEAR     29  15  56 VRB3      30.27F
PAGOSA SPRINGS PTCLDY    24  17  73 CALM      30.26F
TELLURIDE      PTCLDY    30  12  47 CALM      30.36F
WOLF CREEK PAS NOT AVBL
$$

COZ009-010-012-014-032>034-037-058>063-250400-
...CENTRAL COLORADO...

CITY           SKY/WX    TMP DP  RH WIND       PRES   REMARKS
ASPEN          CLOUDY    28  18  66 CALM      30.30F
BUENA VISTA    MOCLDY    39  19  44 NW16G30   30.17R
COPPER MTN     LGT SNOW  25  19  80 W35G43    30.27F WCI   7
BERTHOUD PASS  SNOW      16  10  79 W44G58    30.20R VSB 1/2 WCI  -8
COTTONWOOD PAS MOCLDY    36  18  48 S18G28    30.20R
GUNNISON       MOCLDY     3  -9  55 CALM      30.38F
KREMMLING      CLOUDY    18   9  68 CALM      30.34R
LEADVILLE      CLOUDY    27  14  58 NW8       30.30F WCI  19
SALIDA         MOCLDY    42  16  34 W25G31    30.27R
SUNLIGHT       CLOUDY    28  18  64 CALM      30.36R
WILKERSON PASS MOCLDY    25  18  74 NW17G35   30.24S WCI  11
$$

COZ069>075-250400-
...SAN LUIS VALLEY/SANGRE DE CRISTO MOUNTAINS...

CITY           SKY/WX    TMP DP  RH WIND       PRES   REMARKS
ALAMOSA        CLOUDY    18  10  71 SW8       30.26S WCI   8
LA VETA PASS   NOT AVBL
SAGUACHE       MOCLDY    19   9  63 SE6       30.27R WCI  11
$$

COZ035-036-038>040-250400-
...NORTHERN COLORADO FRONT RANGE...

CITY           SKY/WX    TMP DP  RH WIND       PRES   REMARKS
DENVER INTL AP PTCLDY    43  22  43 NW12      30.09R
DMNS CITY PARK   N/A     47  20  34 NW8G21    30.10R
AURORA         PTCLDY    44  21  41 W16G23    30.10R
FRONT RANGE AP NOT AVBL
ERIE MUNI ARPT PTCLDY    42  20  41 W7        30.08S
BOULDER MUN AP PTCLDY    48  21  34 W22G31    30.07R
CENTENNIAL     MOCLDY    42  23  46 N14       30.10R
BROOMFIELD     MOCLDY    45  19  36 W23       30.10S
FORT COLLINS   CLEAR     45  23  42 NW10      30.09R
LONGMONT       CLEAR     39  21  47 CALM      30.10R
$$

COZ041-046-047-076>085-087-088-250400-
...PIKES PEAK/PALMER DIVIDE AND SOUTHERN FOOTHILLS...

CITY           SKY/WX    TMP DP  RH WIND       PRES   REMARKS
COLO. SPRINGS  CLOUDY    40  23  50 N12       30.09R
A. F. ACADEMY  CLOUDY    38  22  51 NE12      30.09R
ELLICOTT       CLOUDY   N/A N/A N/A N7        30.07R
FALCON         CLOUDY    39  22  50 NW14      30.10R
FORT CARSON    CLOUDY    38  19  46 N6        30.05R
LIMON          MOCLDY    41  25  53 NW16      30.07R
MONUMENT HILL  MOCLDY    36  23  60 NW12      30.12R
TRINIDAD       CLOUDY    39  23  52 W7        30.07S
$$

COZ042>045-048>051-090-091-250400-
...NORTHEAST COLORADO...

CITY           SKY/WX    TMP DP  RH WIND       PRES   REMARKS
GREELEY ARPT   MOCLDY    45  25  45 NW16      30.07R
AKRON          CLOUDY    37  32  82 N32G46    30.09R
BURLINGTON     CLOUDY    41  31  67 NW12      30.01R
WRAY           CLOUDY    44  34  68 NW31G45   30.02R
STERLING       PTCLDY    39  36  87 N24G30    30.08R
HOLYOKE        CLOUDY    43  34  70 NW28G33   29.99F
FORT MORGAN    PTCLDY    42  27  54 N24G38    30.11R
$$

COZ086-089-092>099-250400-
...SOUTHEAST COLORADO...

CITY           SKY/WX    TMP DP  RH WIND       PRES   REMARKS
PUEBLO         CLOUDY    36  26  67 VRB3      30.02S
LA JUNTA       MOCLDY    42  30  62 W14       30.05R
LAMAR          CLOUDY    35  32  88 W5        30.01R WCI  31
SPRINGFIELD      N/A     33  27  78 NW9       30.02R WCI  25
$$


USA.gov is the U.S. government's official web portal to all federal, state and local government web resources and services.